Time,TemperatureF,DewpointF,PressureIn,WindDirection,WindDirectionDegrees,WindSpeedMPH,WindSpeedGustMPH,Humidity,HourlyPrecipIn,Conditions,Clouds,dailyrainin,SoftwareType,DateUTC
2013-04-14 00:05:00,55.2,41.1,28.97,SSE,150,5.8,5.8,59,0.00,,---,0.00,VWS V14.00,2013-04-14 05:05:00,
2013-04-14 00:11:00,55.2,41.1,28.97,SSE,168,5.8,5.8,59,0.00,,---,0.00,VWS V14.00,2013-04-14 05:11:00,
2013-04-14 00:17:00,54.7,41.1,28.97,SSE,160,4.0,5.8,60,0.00,,---,0.00,VWS V14.00,2013-04-14 05:17:00,
2013-04-14 00:20:00,54.7,41.1,28.97,SSE,160,4.0,5.8,60,0.00,,---,0.00,VWS V14.00,2013-04-14 05:20:00,
2013-04-14 00:23:00,54.7,41.1,28.97,South,171,4.0,4.0,60,0.00,,---,0.00,VWS V14.00,2013-04-14 05:23:00,
2013-04-14 00:26:00,54.7,41.1,28.97,SSE,165,4.0,4.0,60,0.00,,---,0.00,VWS V14.00,2013-04-14 05:26:00,
2013-04-14 00:29:00,54.7,41.1,28.97,SSE,147,3.6,4.0,60,0.00,,---,0.00,VWS V14.00,2013-04-14 05:29:00,
2013-04-14 00:32:00,54.7,41.1,28.97,SE,139,2.7,5.4,60,0.00,,---,0.00,VWS V14.00,2013-04-14 05:32:00,
2013-04-14 00:35:00,54.7,41.1,28.97,SE,140,3.1,5.4,60,0.00,,---,0.00,VWS V14.00,2013-04-14 05:35:00,
2013-04-14 00:38:00,54.5,41.3,28.97,SE,141,2.2,3.1,61,0.00,,---,0.00,VWS V14.00,2013-04-14 05:38:00,
2013-04-14 00:41:00,54.5,41.3,28.97,ESE,120,0.0,3.1,61,0.00,,---,0.00,VWS V14.00,2013-04-14 05:41:00,
2013-04-14 00:45:00,54.5,41.3,28.97,SE,141,0.0,3.1,61,0.00,,---,0.00,VWS V14.00,2013-04-14 05:45:00,
2013-04-14 00:48:00,54.3,41.2,28.97,SSE,147,2.2,3.1,61,0.00,,---,0.00,VWS V14.00,2013-04-14 05:48:00,
2013-04-14 00:50:00,54.3,41.2,28.97,ENE,77,3.1,3.6,61,0.00,,---,0.00,VWS V14.00,2013-04-14 05:50:00,
2013-04-14 00:54:00,54.3,41.2,28.97,East,99,2.2,3.1,61,0.00,,---,0.00,VWS V14.00,2013-04-14 05:54:00,
2013-04-14 00:57:00,54.3,41.2,28.97,East,99,2.2,3.1,61,0.00,,---,0.00,VWS V14.00,2013-04-14 05:57:00,
2013-04-14 01:03:00,54.3,41.2,28.97,South,171,3.1,3.1,61,0.00,,---,0.00,VWS V14.00,2013-04-14 06:03:00,
2013-04-14 01:06:00,54.3,41.2,28.97,SE,141,3.6,3.6,61,0.00,,---,0.00,VWS V14.00,2013-04-14 06:06:00,
2013-04-14 01:09:00,54.3,41.6,28.97,East,93,0.0,3.6,62,0.00,,---,0.00,VWS V14.00,2013-04-14 06:09:00,
2013-04-14 01:12:00,54.1,41.4,28.97,East,91,0.0,3.6,62,0.00,,---,0.00,VWS V14.00,2013-04-14 06:12:00,
2013-04-14 01:15:00,54.1,41.4,28.97,South,178,0.0,3.6,62,0.00,,---,0.00,VWS V14.00,2013-04-14 06:15:00,
2013-04-14 01:18:00,54.1,41.4,28.97,South,170,0.0,3.6,62,0.00,,---,0.00,VWS V14.00,2013-04-14 06:18:00,
2013-04-14 01:20:00,54.1,41.4,28.97,South,170,0.0,3.6,62,0.00,,---,0.00,VWS V14.00,2013-04-14 06:20:00,
2013-04-14 01:24:00,53.9,41.7,28.97,South,176,0.0,4.0,63,0.00,,---,0.00,VWS V14.00,2013-04-14 06:24:00,
2013-04-14 01:27:00,53.9,41.7,28.97,NE,51,0.0,4.0,63,0.00,,---,0.00,VWS V14.00,2013-04-14 06:27:00,
2013-04-14 01:30:00,53.9,41.7,28.97,SE,127,0.0,4.0,63,0.00,,---,0.00,VWS V14.00,2013-04-14 06:30:00,
2013-04-14 01:33:00,53.9,41.7,28.97,SSE,158,2.2,4.0,63,0.00,,---,0.00,VWS V14.00,2013-04-14 06:33:00,
2013-04-14 01:35:00,53.9,41.7,28.97,SSE,158,0.0,4.0,63,0.00,,---,0.00,VWS V14.00,2013-04-14 06:35:00,
2013-04-14 01:39:00,53.8,41.9,28.97,SSE,158,0.0,0.0,64,0.00,,---,0.00,VWS V14.00,2013-04-14 06:39:00,
2013-04-14 01:45:00,53.8,41.9,28.97,SSE,156,0.0,0.0,64,0.00,,---,0.00,VWS V14.00,2013-04-14 06:45:00,
2013-04-14 01:50:00,53.8,41.9,28.97,SSE,161,0.0,3.6,64,0.00,,---,0.00,VWS V14.00,2013-04-14 06:50:00,
2013-04-14 01:54:00,53.8,41.9,28.97,SSE,161,0.0,0.0,64,0.00,,---,0.00,VWS V14.00,2013-04-14 06:54:00,
2013-04-14 02:00:00,53.8,41.9,28.97,South,189,0.0,0.0,64,0.00,,---,0.00,VWS V14.00,2013-04-14 07:00:00,
2013-04-14 02:03:00,53.6,42.1,28.97,South,189,0.0,0.0,65,0.00,,---,0.00,VWS V14.00,2013-04-14 07:03:00,
2013-04-14 02:05:00,53.6,42.1,28.97,South,189,0.0,0.0,65,0.00,,---,0.00,VWS V14.00,2013-04-14 07:05:00,
2013-04-14 02:09:00,53.6,42.1,28.97,ESE,106,0.0,0.0,65,0.00,,---,0.00,VWS V14.00,2013-04-14 07:09:00,
2013-04-14 02:12:00,53.4,41.9,28.97,ESE,109,0.0,0.0,65,0.00,,---,0.00,VWS V14.00,2013-04-14 07:12:00,
2013-04-14 02:15:00,53.4,41.9,28.94,ESE,109,0.0,2.2,65,0.00,,---,0.00,VWS V14.00,2013-04-14 07:15:00,
2013-04-14 02:20:00,53.4,42.3,28.94,SE,129,0.0,2.7,66,0.00,,---,0.00,VWS V14.00,2013-04-14 07:20:00,
2013-04-14 02:21:00,53.4,42.3,28.94,SE,129,0.0,0.0,66,0.00,,---,0.00,VWS V14.00,2013-04-14 07:21:00,
2013-04-14 02:27:00,53.2,42.2,28.94,South,174,0.0,3.1,66,0.00,,---,0.00,VWS V14.00,2013-04-14 07:27:00,
2013-04-14 02:33:00,53.2,42.6,28.94,East,95,0.0,3.1,67,0.00,,---,0.00,VWS V14.00,2013-04-14 07:33:00,
2013-04-14 02:35:00,53.2,42.6,28.94,East,95,0.0,3.1,67,0.00,,---,0.00,VWS V14.00,2013-04-14 07:35:00,
2013-04-14 02:37:00,53.2,42.6,28.94,East,95,0.0,0.0,67,0.00,,---,0.00,VWS V14.00,2013-04-14 07:37:00,
2013-04-14 02:40:00,53.2,42.6,28.94,ESE,102,0.0,0.0,67,0.00,,---,0.00,VWS V14.00,2013-04-14 07:40:00,
2013-04-14 02:46:00,53.2,42.6,28.94,ESE,102,0.0,0.0,67,0.00,,---,0.00,VWS V14.00,2013-04-14 07:46:00,
2013-04-14 02:49:00,53.2,42.6,28.94,ESE,102,0.0,0.0,67,0.00,,---,0.00,VWS V14.00,2013-04-14 07:49:00,
2013-04-14 02:50:00,53.2,42.6,28.94,ESE,102,0.0,0.0,67,0.00,,---,0.00,VWS V14.00,2013-04-14 07:50:00,
2013-04-14 02:55:00,53.2,42.6,28.94,ESE,102,0.0,0.0,67,0.00,,---,0.00,VWS V14.00,2013-04-14 07:55:00,
2013-04-14 02:58:00,53.2,42.6,28.94,ESE,102,0.0,0.0,67,0.00,,---,0.00,VWS V14.00,2013-04-14 07:58:00,
2013-04-14 03:01:00,53.2,42.6,28.94,ESE,102,0.0,0.0,67,0.00,,---,0.00,VWS V14.00,2013-04-14 08:01:00,
2013-04-14 03:04:00,53.0,42.4,28.94,ESE,102,0.0,0.0,67,0.00,,---,0.00,VWS V14.00,2013-04-14 08:04:00,
2013-04-14 03:07:00,53.0,42.4,28.94,ESE,102,0.0,0.0,67,0.00,,---,0.00,VWS V14.00,2013-04-14 08:07:00,
2013-04-14 03:10:00,53.0,42.4,28.94,ESE,102,0.0,0.0,67,0.00,,---,0.00,VWS V14.00,2013-04-14 08:10:00,
2013-04-14 03:19:00,52.7,42.4,28.94,SE,124,0.0,0.0,68,0.00,,---,0.00,VWS V14.00,2013-04-14 08:19:00,
2013-04-14 03:20:00,52.7,42.4,28.94,SE,124,0.0,0.0,68,0.00,,---,0.00,VWS V14.00,2013-04-14 08:20:00,
2013-04-14 03:22:00,52.7,42.4,28.94,ESE,105,0.0,0.0,68,0.00,,---,0.00,VWS V14.00,2013-04-14 08:22:00,
2013-04-14 03:25:00,52.5,42.3,28.94,SSE,152,0.0,0.0,68,0.00,,---,0.00,VWS V14.00,2013-04-14 08:25:00,
2013-04-14 03:28:00,52.5,42.3,28.91,SSE,152,0.0,0.0,68,0.00,,---,0.00,VWS V14.00,2013-04-14 08:28:00,
2013-04-14 03:31:00,52.5,42.3,28.91,East,101,0.0,0.0,68,0.00,,---,0.00,VWS V14.00,2013-04-14 08:31:00,
2013-04-14 03:37:00,52.3,42.5,28.91,East,101,0.0,0.0,69,0.00,,---,0.00,VWS V14.00,2013-04-14 08:37:00,
2013-04-14 03:40:00,52.3,42.5,28.91,East,101,0.0,0.0,69,0.00,,---,0.00,VWS V14.00,2013-04-14 08:40:00,
2013-04-14 03:46:00,52.1,42.3,28.91,ESE,113,0.0,0.0,69,0.00,,---,0.00,VWS V14.00,2013-04-14 08:46:00,
2013-04-14 03:50:00,52.1,42.3,28.91,SE,129,0.0,0.0,69,0.00,,---,0.00,VWS V14.00,2013-04-14 08:50:00,
2013-04-14 03:52:00,52.1,42.3,28.91,SE,129,0.0,0.0,69,0.00,,---,0.00,VWS V14.00,2013-04-14 08:52:00,
2013-04-14 03:58:00,52.0,42.1,28.91,SE,129,0.0,0.0,69,0.00,,---,0.00,VWS V14.00,2013-04-14 08:58:00,
2013-04-14 04:01:00,52.0,42.5,28.91,SE,129,0.0,0.0,70,0.00,,---,0.00,VWS V14.00,2013-04-14 09:01:00,
2013-04-14 04:04:00,52.0,42.5,28.91,SE,140,2.7,2.7,70,0.00,,---,0.00,VWS V14.00,2013-04-14 09:04:00,
2013-04-14 04:10:00,51.8,42.3,28.91,SE,141,0.0,0.0,70,0.00,,---,0.00,VWS V14.00,2013-04-14 09:10:00,
2013-04-14 04:13:00,51.8,42.3,28.91,SE,141,0.0,0.0,70,0.00,,---,0.00,VWS V14.00,2013-04-14 09:13:00,
2013-04-14 04:16:00,51.8,42.3,28.91,SE,130,0.0,0.0,70,0.00,,---,0.00,VWS V14.00,2013-04-14 09:16:00,
2013-04-14 04:20:00,51.6,42.2,28.91,ESE,116,0.0,0.0,70,0.00,,---,0.00,VWS V14.00,2013-04-14 09:20:00,
2013-04-14 04:22:00,51.6,42.2,28.88,ESE,116,0.0,0.0,70,0.00,,---,0.00,VWS V14.00,2013-04-14 09:22:00,
2013-04-14 04:29:00,51.6,42.5,28.88,East,100,0.0,0.0,71,0.00,,---,0.00,VWS V14.00,2013-04-14 09:29:00,
2013-04-14 04:32:00,51.6,42.5,28.88,SE,142,0.0,0.0,71,0.00,,---,0.00,VWS V14.00,2013-04-14 09:32:00,
2013-04-14 04:35:00,51.6,42.5,28.88,SE,142,0.0,0.0,71,0.00,,---,0.00,VWS V14.00,2013-04-14 09:35:00,
2013-04-14 04:38:00,51.2,42.2,28.88,SE,142,0.0,0.0,71,0.00,,---,0.00,VWS V14.00,2013-04-14 09:38:00,
2013-04-14 04:41:00,51.2,42.2,28.88,SE,142,0.0,0.0,71,0.00,,---,0.00,VWS V14.00,2013-04-14 09:41:00,
2013-04-14 04:47:00,51.1,42.4,28.88,SSW,200,2.7,2.7,72,0.00,,---,0.00,VWS V14.00,2013-04-14 09:47:00,
2013-04-14 04:50:00,51.1,42.4,28.88,SSE,166,2.7,3.1,72,0.00,,---,0.00,VWS V14.00,2013-04-14 09:50:00,
2013-04-14 04:53:00,51.1,42.4,28.88,SSE,166,2.7,2.7,72,0.00,,---,0.00,VWS V14.00,2013-04-14 09:53:00,
2013-04-14 04:56:00,51.1,42.4,28.88,SSE,166,2.7,2.7,72,0.00,,---,0.00,VWS V14.00,2013-04-14 09:56:00,
2013-04-14 05:02:00,51.1,42.7,28.88,SSE,150,4.0,4.0,73,0.00,,---,0.00,VWS V14.00,2013-04-14 10:02:00,
2013-04-14 05:05:00,51.1,42.7,28.88,SSE,154,4.0,4.0,73,0.00,,---,0.00,VWS V14.00,2013-04-14 10:05:00,
2013-04-14 05:08:00,51.1,42.7,28.88,South,179,3.1,4.0,73,0.00,,---,0.00,VWS V14.00,2013-04-14 10:08:00,
2013-04-14 05:14:00,51.1,42.7,28.91,SSE,154,3.6,4.0,73,0.00,,---,0.00,VWS V14.00,2013-04-14 10:14:00,
2013-04-14 05:17:00,51.1,42.7,28.91,SSE,163,3.1,4.0,73,0.00,,---,0.00,VWS V14.00,2013-04-14 10:17:00,
2013-04-14 05:20:00,51.1,42.7,28.91,SSE,159,4.0,4.0,73,0.00,,---,0.00,VWS V14.00,2013-04-14 10:20:00,
2013-04-14 05:23:00,51.1,42.7,28.91,SSE,161,2.7,4.0,73,0.00,,---,0.00,VWS V14.00,2013-04-14 10:23:00,
2013-04-14 05:29:00,51.1,43.1,28.91,SSE,161,2.7,4.0,74,0.00,,---,0.00,VWS V14.00,2013-04-14 10:29:00,
2013-04-14 05:32:00,51.1,43.1,28.91,SE,130,3.6,4.0,74,0.00,,---,0.00,VWS V14.00,2013-04-14 10:32:00,
2013-04-14 05:35:00,50.9,42.9,28.91,East,90,2.7,4.0,74,0.00,,---,0.00,VWS V14.00,2013-04-14 10:35:00,
2013-04-14 05:41:00,50.9,42.9,28.91,SSE,163,3.1,3.1,74,0.00,,---,0.00,VWS V14.00,2013-04-14 10:41:00,
2013-04-14 05:44:00,50.9,42.9,28.88,SSE,152,3.1,3.1,74,0.00,,---,0.00,VWS V14.00,2013-04-14 10:44:00,
2013-04-14 05:50:00,50.9,42.9,28.88,SSE,163,4.0,4.0,74,0.00,,---,0.00,VWS V14.00,2013-04-14 10:50:00,
2013-04-14 05:56:00,50.9,43.2,28.88,SSE,159,3.6,4.0,75,0.00,,---,0.00,VWS V14.00,2013-04-14 10:56:00,
2013-04-14 05:59:00,50.9,43.2,28.88,SSE,159,3.6,4.0,75,0.00,,---,0.00,VWS V14.00,2013-04-14 10:59:00,
2013-04-14 06:05:00,50.9,43.2,28.88,SSE,151,4.9,4.9,75,0.00,,---,0.00,VWS V14.00,2013-04-14 11:05:00,
2013-04-14 06:08:00,50.9,43.2,28.88,SSE,151,4.9,4.9,75,0.00,,---,0.00,VWS V14.00,2013-04-14 11:08:00,
2013-04-14 06:11:00,50.9,43.2,28.88,SSE,163,3.1,4.9,75,0.00,,---,0.00,VWS V14.00,2013-04-14 11:11:00,
2013-04-14 06:14:00,50.9,43.2,28.88,South,185,5.4,5.8,75,0.00,,---,0.00,VWS V14.00,2013-04-14 11:14:00,
2013-04-14 06:17:00,51.1,43.4,28.88,South,185,5.4,5.8,75,0.00,,---,0.00,VWS V14.00,2013-04-14 11:17:00,
2013-04-14 06:23:00,51.1,43.4,28.88,SSE,159,3.1,3.6,75,0.00,,---,0.00,VWS V14.00,2013-04-14 11:23:00,
2013-04-14 06:26:00,51.1,43.4,28.88,SSE,161,3.6,3.6,75,0.00,,---,0.00,VWS V14.00,2013-04-14 11:26:00,
2013-04-14 06:29:00,51.1,43.4,28.88,SSE,161,3.1,3.6,75,0.00,,---,0.00,VWS V14.00,2013-04-14 11:29:00,
2013-04-14 06:32:00,51.1,43.4,28.88,SSE,157,3.6,3.6,75,0.00,,---,0.00,VWS V14.00,2013-04-14 11:32:00,
2013-04-14 06:35:00,51.1,43.4,28.88,SSE,157,3.6,3.6,75,0.00,,---,0.00,VWS V14.00,2013-04-14 11:35:00,
2013-04-14 06:41:00,51.1,43.4,28.88,South,172,3.1,3.6,75,0.00,,---,0.00,VWS V14.00,2013-04-14 11:41:00,
2013-04-14 06:44:00,51.1,43.4,28.88,South,172,3.1,3.6,75,0.00,,---,0.00,VWS V14.00,2013-04-14 11:44:00,
2013-04-14 06:50:00,51.1,43.4,28.88,South,172,3.1,3.6,75,0.00,,---,0.00,VWS V14.00,2013-04-14 11:50:00,
2013-04-14 06:56:00,51.1,43.4,28.88,SSE,168,0.0,3.1,75,0.00,,---,0.00,VWS V14.00,2013-04-14 11:56:00,
2013-04-14 06:59:00,51.1,43.4,28.88,SSE,168,0.0,3.1,75,0.00,,---,0.00,VWS V14.00,2013-04-14 11:59:00,
2013-04-14 07:02:00,51.1,43.4,28.88,SSE,168,0.0,3.1,75,0.00,,---,0.00,VWS V14.00,2013-04-14 12:02:00,
2013-04-14 07:05:00,51.1,43.4,28.88,SSE,168,0.0,3.1,75,0.00,,---,0.00,VWS V14.00,2013-04-14 12:05:00,
2013-04-14 07:08:00,51.1,43.4,28.88,SSE,168,0.0,0.0,75,0.00,,---,0.00,VWS V14.00,2013-04-14 12:08:00,
2013-04-14 07:12:00,51.1,43.4,28.88,SSE,168,0.0,0.0,75,0.00,,---,0.00,VWS V14.00,2013-04-14 12:12:00,
2013-04-14 07:18:00,51.1,43.4,28.88,SSW,194,0.0,2.7,75,0.00,,---,0.00,VWS V14.00,2013-04-14 12:18:00,
2013-04-14 07:20:00,51.1,43.4,28.88,SSW,194,0.0,2.7,75,0.00,,---,0.00,VWS V14.00,2013-04-14 12:20:00,
2013-04-14 07:24:00,51.1,43.4,28.88,SSW,194,0.0,0.0,75,0.00,,---,0.00,VWS V14.00,2013-04-14 12:24:00,
2013-04-14 07:27:00,50.9,43.6,28.88,SSW,194,0.0,0.0,76,0.00,,---,0.00,VWS V14.00,2013-04-14 12:27:00,
2013-04-14 07:30:00,50.9,43.9,28.88,SSW,194,0.0,0.0,77,0.00,,---,0.00,VWS V14.00,2013-04-14 12:30:00,
2013-04-14 07:33:00,50.9,43.9,28.88,SSW,194,0.0,0.0,77,0.00,,---,0.00,VWS V14.00,2013-04-14 12:33:00,
2013-04-14 07:35:00,51.1,44.1,28.88,SSW,194,0.0,2.2,77,0.00,,---,0.00,VWS V14.00,2013-04-14 12:35:00,
2013-04-14 07:39:00,51.1,44.1,28.88,SSW,194,0.0,0.0,77,0.00,,---,0.00,VWS V14.00,2013-04-14 12:39:00,
2013-04-14 07:42:00,51.1,44.1,28.88,SSW,194,0.0,0.0,77,0.00,,---,0.00,VWS V14.00,2013-04-14 12:42:00,
2013-04-14 07:45:00,51.2,44.3,28.88,SSW,194,0.0,0.0,77,0.00,,---,0.00,VWS V14.00,2013-04-14 12:45:00,
2013-04-14 07:48:00,51.2,44.3,28.88,SSW,194,0.0,0.0,77,0.00,,---,0.00,VWS V14.00,2013-04-14 12:48:00,
2013-04-14 07:50:00,51.4,44.1,28.88,SSW,194,0.0,0.0,76,0.00,,---,0.00,VWS V14.00,2013-04-14 12:50:00,
2013-04-14 07:51:00,51.4,44.1,28.88,SSW,194,0.0,0.0,76,0.00,,---,0.00,VWS V14.00,2013-04-14 12:51:00,
2013-04-14 07:57:00,51.4,44.1,28.88,SSW,194,0.0,0.0,76,0.00,,---,0.00,VWS V14.00,2013-04-14 12:57:00,
2013-04-14 08:00:00,51.6,44.0,28.88,SSW,194,0.0,0.0,75,0.00,,---,0.00,VWS V14.00,2013-04-14 13:00:00,
2013-04-14 08:03:00,51.8,44.1,28.88,South,171,3.1,3.1,75,0.00,,---,0.00,VWS V14.00,2013-04-14 13:03:00,
2013-04-14 08:05:00,51.8,44.1,28.88,South,171,3.1,3.1,75,0.00,,---,0.00,VWS V14.00,2013-04-14 13:05:00,
2013-04-14 08:12:00,51.8,44.5,28.88,SSE,153,4.9,4.9,76,0.00,,---,0.00,VWS V14.00,2013-04-14 13:12:00,
2013-04-14 08:15:00,51.8,44.5,28.88,SSE,153,4.9,4.9,76,0.00,,---,0.00,VWS V14.00,2013-04-14 13:15:00,
2013-04-14 08:18:00,51.8,45.2,28.88,SSE,153,4.9,4.9,78,0.00,,---,0.00,VWS V14.00,2013-04-14 13:18:00,
2013-04-14 08:20:00,51.8,45.2,28.88,SSE,148,4.0,4.9,78,0.00,,---,0.00,VWS V14.00,2013-04-14 13:20:00,
2013-04-14 08:24:00,51.8,45.5,28.88,South,183,4.0,4.0,79,0.00,,---,0.00,VWS V14.00,2013-04-14 13:24:00,
2013-04-14 08:27:00,51.8,45.5,28.88,South,183,4.0,4.0,79,0.00,,---,0.00,VWS V14.00,2013-04-14 13:27:00,
2013-04-14 08:33:00,52.5,45.5,28.88,SSE,167,4.9,4.9,77,0.00,,---,0.00,VWS V14.00,2013-04-14 13:33:00,
2013-04-14 08:35:00,52.9,45.9,28.88,SSE,167,4.9,4.9,77,0.00,,---,0.00,VWS V14.00,2013-04-14 13:35:00,
2013-04-14 08:40:00,52.9,45.5,28.88,South,173,4.0,4.9,76,0.00,,---,0.00,VWS V14.00,2013-04-14 13:40:00,
2013-04-14 08:46:00,53.9,46.2,28.88,SSE,157,4.0,5.4,75,0.00,,---,0.00,VWS V14.00,2013-04-14 13:46:00,
2013-04-14 08:50:00,53.9,46.2,28.88,SSE,154,5.4,5.4,75,0.00,,---,0.00,VWS V14.00,2013-04-14 13:50:00,
2013-04-14 08:52:00,54.7,46.5,28.88,SSE,163,5.4,5.8,74,0.00,,---,0.00,VWS V14.00,2013-04-14 13:52:00,
2013-04-14 08:58:00,55.0,46.9,28.85,SSE,147,4.0,5.8,74,0.00,,---,0.00,VWS V14.00,2013-04-14 13:58:00,
2013-04-14 09:04:00,56.5,47.6,28.85,SSE,159,5.4,5.8,72,0.00,,---,0.00,VWS V14.00,2013-04-14 14:04:00,
2013-04-14 09:05:00,56.6,47.7,28.85,SE,139,5.4,5.8,72,0.00,,---,0.00,VWS V14.00,2013-04-14 14:05:00,
2013-04-14 09:10:00,57.2,47.9,28.85,SE,139,5.4,5.4,71,0.00,,---,0.00,VWS V14.00,2013-04-14 14:10:00,
2013-04-14 09:13:00,57.7,48.0,28.85,SSE,151,4.9,5.4,70,0.00,,---,0.00,VWS V14.00,2013-04-14 14:13:00,
2013-04-14 09:16:00,58.1,48.0,28.85,SSE,151,4.9,5.4,69,0.00,,---,0.00,VWS V14.00,2013-04-14 14:16:00,
2013-04-14 09:19:00,58.3,48.2,28.85,South,187,5.4,5.4,69,0.00,,---,0.00,VWS V14.00,2013-04-14 14:19:00,
2013-04-14 09:20:00,58.3,48.2,28.85,SSE,152,6.3,6.3,69,0.00,,---,0.00,VWS V14.00,2013-04-14 14:20:00,
2013-04-14 09:25:00,59.0,48.0,28.85,SE,132,6.3,6.3,67,0.00,,---,0.00,VWS V14.00,2013-04-14 14:25:00,
2013-04-14 09:28:00,59.3,48.0,28.85,SE,143,4.9,6.3,66,0.00,,---,0.00,VWS V14.00,2013-04-14 14:28:00,
2013-04-14 09:32:00,59.9,48.1,28.85,South,173,4.0,6.3,65,0.00,,---,0.00,VWS V14.00,2013-04-14 14:32:00,
2013-04-14 09:35:00,59.9,48.1,28.85,SSE,156,5.8,6.3,65,0.00,,---,0.00,VWS V14.00,2013-04-14 14:35:00,
2013-04-14 09:38:00,60.4,48.2,28.85,SSE,167,5.4,5.4,64,0.00,,---,0.00,VWS V14.00,2013-04-14 14:38:00,
2013-04-14 09:41:00,60.4,48.2,28.85,ESE,117,5.4,5.4,64,0.00,,---,0.00,VWS V14.00,2013-04-14 14:41:00,
2013-04-14 09:44:00,61.1,48.0,28.85,SSE,157,5.4,5.4,62,0.00,,---,0.00,VWS V14.00,2013-04-14 14:44:00,
2013-04-14 09:47:00,61.3,48.2,28.85,SSE,158,5.8,6.3,62,0.00,,---,0.00,VWS V14.00,2013-04-14 14:47:00,
2013-04-14 09:53:00,62.0,48.5,28.85,SE,145,4.9,5.4,61,0.00,,---,0.00,VWS V14.00,2013-04-14 14:53:00,
2013-04-14 09:59:00,62.8,48.2,28.85,SSE,159,5.8,5.8,59,0.00,,---,0.00,VWS V14.00,2013-04-14 14:59:00,
2013-04-14 10:05:00,63.3,48.3,28.85,SSE,154,4.9,5.8,58,0.00,,---,0.00,VWS V14.00,2013-04-14 15:05:00,
2013-04-14 10:11:00,63.7,48.2,28.85,SE,133,6.3,6.7,57,0.00,,---,0.00,VWS V14.00,2013-04-14 15:11:00,
2013-04-14 10:17:00,64.0,48.0,28.85,SSE,150,5.4,8.1,56,0.00,,---,0.00,VWS V14.00,2013-04-14 15:17:00,
2013-04-14 10:20:00,64.2,47.7,28.85,SE,134,5.8,8.1,55,0.00,,---,0.00,VWS V14.00,2013-04-14 15:20:00,
2013-04-14 10:23:00,64.6,48.0,28.85,SE,134,5.8,5.8,55,0.00,,---,0.00,VWS V14.00,2013-04-14 15:23:00,
2013-04-14 10:29:00,65.1,48.1,28.85,SSE,153,4.9,5.8,54,0.00,,---,0.00,VWS V14.00,2013-04-14 15:29:00,
2013-04-14 10:32:00,65.1,48.1,28.85,SSE,153,4.9,5.8,54,0.00,,---,0.00,VWS V14.00,2013-04-14 15:32:00,
2013-04-14 10:35:00,65.8,48.7,28.85,SSE,163,6.3,6.3,54,0.00,,---,0.00,VWS V14.00,2013-04-14 15:35:00,
2013-04-14 10:38:00,66.0,48.4,28.85,SSE,163,6.3,6.3,53,0.00,,---,0.00,VWS V14.00,2013-04-14 15:38:00,
2013-04-14 10:41:00,66.5,48.4,28.85,SSE,156,5.4,8.3,52,0.00,,---,0.00,VWS V14.00,2013-04-14 15:41:00,
2013-04-14 10:47:00,67.3,48.0,28.85,SSE,148,8.1,8.3,50,0.00,,---,0.00,VWS V14.00,2013-04-14 15:47:00,
2013-04-14 10:50:00,67.4,48.2,28.85,SSE,148,8.1,8.3,50,0.00,,---,0.00,VWS V14.00,2013-04-14 15:50:00,
2013-04-14 10:53:00,67.8,48.0,28.85,SSE,161,8.7,8.7,49,0.00,,---,0.00,VWS V14.00,2013-04-14 15:53:00,
2013-04-14 10:56:00,67.8,48.0,28.85,South,170,10.1,10.1,49,0.00,,---,0.00,VWS V14.00,2013-04-14 15:56:00,
2013-04-14 10:59:00,68.3,47.9,28.85,SE,134,8.1,10.1,48,0.00,,---,0.00,VWS V14.00,2013-04-14 15:59:00,
2013-04-14 11:03:00,68.5,47.5,28.85,SE,126,7.6,10.1,47,0.00,,---,0.00,VWS V14.00,2013-04-14 16:03:00,
2013-04-14 11:05:00,69.1,48.0,28.85,SSE,147,7.2,10.1,47,0.00,,---,0.00,VWS V14.00,2013-04-14 16:05:00,
2013-04-14 11:09:00,69.2,47.6,28.82,SSE,168,7.6,8.1,46,0.00,,---,0.00,VWS V14.00,2013-04-14 16:09:00,
2013-04-14 11:12:00,69.4,47.8,28.82,SE,142,12.8,12.8,46,0.00,,---,0.00,VWS V14.00,2013-04-14 16:12:00,
2013-04-14 11:15:00,69.6,47.3,28.82,SE,141,11.0,12.8,45,0.00,,---,0.00,VWS V14.00,2013-04-14 16:15:00,
2013-04-14 11:18:00,69.6,47.3,28.82,South,183,8.1,12.8,45,0.00,,---,0.00,VWS V14.00,2013-04-14 16:18:00,
2013-04-14 11:20:00,70.0,47.1,28.82,SE,130,8.1,12.8,44,0.00,,---,0.00,VWS V14.00,2013-04-14 16:20:00,
2013-04-14 11:21:00,70.0,47.1,28.82,SE,130,8.1,8.1,44,0.00,,---,0.00,VWS V14.00,2013-04-14 16:21:00,
2013-04-14 11:27:00,70.1,47.2,28.82,South,170,11.9,14.1,44,0.00,,---,0.00,VWS V14.00,2013-04-14 16:27:00,
2013-04-14 11:33:00,70.3,47.4,28.82,SSE,151,8.1,14.1,44,0.00,,---,0.00,VWS V14.00,2013-04-14 16:33:00,
2013-04-14 11:35:00,70.7,47.1,28.82,SSE,151,8.1,14.1,43,0.00,,---,0.00,VWS V14.00,2013-04-14 16:35:00,
2013-04-14 11:36:00,70.7,47.1,28.82,SSE,151,8.1,8.1,43,0.00,,---,0.00,VWS V14.00,2013-04-14 16:36:00,
2013-04-14 11:39:00,71.0,47.4,28.82,SE,125,8.1,10.5,43,0.00,,---,0.00,VWS V14.00,2013-04-14 16:39:00,
2013-04-14 11:45:00,71.2,47.6,28.82,SSE,164,12.3,12.3,43,0.00,,---,0.00,VWS V14.00,2013-04-14 16:45:00,
2013-04-14 11:48:00,71.2,47.6,28.82,SSE,164,12.3,12.3,43,0.00,,---,0.00,VWS V14.00,2013-04-14 16:48:00,
2013-04-14 11:51:00,71.6,47.3,28.82,SSE,165,6.3,6.3,42,0.00,,---,0.00,VWS V14.00,2013-04-14 16:51:00,
2013-04-14 11:57:00,72.1,47.8,28.82,SSE,166,13.2,13.2,42,0.00,,---,0.00,VWS V14.00,2013-04-14 16:57:00,
2013-04-14 12:00:00,72.1,47.2,28.82,SSE,166,13.2,13.2,41,0.00,,---,0.00,VWS V14.00,2013-04-14 17:00:00,
2013-04-14 12:05:00,72.1,47.2,28.82,SSE,156,13.2,13.2,41,0.00,,---,0.00,VWS V14.00,2013-04-14 17:05:00,
2013-04-14 12:06:00,72.1,47.2,28.82,SSE,156,13.2,13.2,41,0.00,,---,0.00,VWS V14.00,2013-04-14 17:06:00,
2013-04-14 12:09:00,72.3,47.3,28.79,South,178,6.3,13.2,41,0.00,,---,0.00,VWS V14.00,2013-04-14 17:09:00,
2013-04-14 12:15:00,72.8,47.8,28.79,SE,145,12.8,13.2,41,0.00,,---,0.00,VWS V14.00,2013-04-14 17:15:00,
2013-04-14 12:22:00,73.0,47.3,28.79,SE,144,8.7,12.8,40,0.00,,---,0.00,VWS V14.00,2013-04-14 17:22:00,
2013-04-14 12:28:00,73.2,46.8,28.79,SSE,154,8.3,12.8,39,0.00,,---,0.00,VWS V14.00,2013-04-14 17:28:00,
2013-04-14 12:31:00,73.4,47.0,28.79,South,170,8.1,12.8,39,0.00,,---,0.00,VWS V14.00,2013-04-14 17:31:00,
2013-04-14 12:35:00,73.9,46.7,28.79,SSE,154,8.1,12.8,38,0.00,,---,0.00,VWS V14.00,2013-04-14 17:35:00,
2013-04-14 12:40:00,73.9,47.4,28.79,SSE,159,8.1,8.3,39,0.00,,---,0.00,VWS V14.00,2013-04-14 17:40:00,
2013-04-14 12:46:00,74.1,48.3,28.79,SSE,156,5.8,8.3,40,0.00,,---,0.00,VWS V14.00,2013-04-14 17:46:00,
2013-04-14 12:49:00,74.1,48.3,28.79,SSE,166,10.5,10.5,40,0.00,,---,0.00,VWS V14.00,2013-04-14 17:49:00,
2013-04-14 12:52:00,74.1,47.6,28.79,South,170,10.1,10.1,39,0.00,,---,0.00,VWS V14.00,2013-04-14 17:52:00,
2013-04-14 12:55:00,74.1,47.6,28.76,East,89,9.6,10.1,39,0.00,,---,0.00,VWS V14.00,2013-04-14 17:55:00,
2013-04-14 12:58:00,74.1,48.3,28.76,SSE,152,8.3,10.1,40,0.00,,---,0.00,VWS V14.00,2013-04-14 17:58:00,
2013-04-14 13:04:00,74.1,48.3,28.76,SSE,167,12.3,12.8,40,0.00,,---,0.00,VWS V14.00,2013-04-14 18:04:00,
2013-04-14 13:07:00,74.1,48.3,28.76,SSE,155,8.7,12.3,40,0.00,,---,0.00,VWS V14.00,2013-04-14 18:07:00,
2013-04-14 13:10:00,74.1,48.3,28.76,SSE,168,10.5,12.3,40,0.00,,---,0.00,VWS V14.00,2013-04-14 18:10:00,
2013-04-14 13:13:00,74.6,48.1,28.76,SE,145,8.7,12.3,39,0.00,,---,0.00,VWS V14.00,2013-04-14 18:13:00,
2013-04-14 13:19:00,74.8,47.5,28.76,SSE,154,13.2,13.2,38,0.00,,---,0.00,VWS V14.00,2013-04-14 18:19:00,
2013-04-14 13:20:00,74.8,47.5,28.76,SSE,154,13.2,13.2,38,0.00,,---,0.00,VWS V14.00,2013-04-14 18:20:00,
2013-04-14 13:22:00,74.8,47.5,28.76,SSE,158,10.5,13.2,38,0.00,,---,0.00,VWS V14.00,2013-04-14 18:22:00,
2013-04-14 13:25:00,74.8,47.5,28.76,South,179,8.7,13.2,38,0.00,,---,0.00,VWS V14.00,2013-04-14 18:25:00,
2013-04-14 13:28:00,74.8,47.5,28.76,South,187,6.3,13.2,38,0.00,,---,0.00,VWS V14.00,2013-04-14 18:28:00,
2013-04-14 13:34:00,74.8,47.5,28.76,South,171,8.1,13.2,38,0.00,,---,0.00,VWS V14.00,2013-04-14 18:34:00,
2013-04-14 13:35:00,74.8,47.5,28.76,SSE,157,11.0,13.2,38,0.00,,---,0.00,VWS V14.00,2013-04-14 18:35:00,
2013-04-14 13:40:00,74.8,47.5,28.76,SSE,168,10.5,11.0,38,0.00,,---,0.00,VWS V14.00,2013-04-14 18:40:00,
2013-04-14 13:43:00,74.8,47.5,28.76,SSE,152,9.2,11.0,38,0.00,,---,0.00,VWS V14.00,2013-04-14 18:43:00,
2013-04-14 13:46:00,75.9,46.3,28.76,SSE,166,11.0,11.0,35,0.00,,---,0.00,VWS V14.00,2013-04-14 18:46:00,
2013-04-14 13:50:00,75.9,46.3,28.76,SE,144,8.7,11.0,35,0.00,,---,0.00,VWS V14.00,2013-04-14 18:50:00,
2013-04-14 13:53:00,75.9,46.3,28.76,SE,144,8.7,8.7,35,0.00,,---,0.00,VWS V14.00,2013-04-14 18:53:00,
2013-04-14 13:59:00,76.3,47.4,28.76,South,172,8.7,8.7,36,0.00,,---,0.00,VWS V14.00,2013-04-14 18:59:00,
2013-04-14 14:05:00,76.3,47.4,28.73,SE,142,10.5,10.5,36,0.00,,---,0.00,VWS V14.00,2013-04-14 19:05:00,
2013-04-14 14:08:00,76.3,47.4,28.73,SSE,162,8.3,10.5,36,0.00,,---,0.00,VWS V14.00,2013-04-14 19:08:00,
2013-04-14 14:14:00,76.3,47.4,28.73,South,169,8.7,10.5,36,0.00,,---,0.00,VWS V14.00,2013-04-14 19:14:00,
2013-04-14 14:20:00,76.3,47.4,28.73,SSE,168,10.1,12.3,36,0.00,,---,0.00,VWS V14.00,2013-04-14 19:20:00,
2013-04-14 14:26:00,76.3,47.4,28.73,SSE,150,8.3,10.1,36,0.00,,---,0.00,VWS V14.00,2013-04-14 19:26:00,
2013-04-14 14:30:00,76.3,47.4,28.73,SSE,151,8.7,12.3,36,0.00,,---,0.00,VWS V14.00,2013-04-14 19:30:00,
2013-04-14 14:35:00,76.3,47.4,28.73,ESE,117,5.4,12.3,36,0.00,,---,0.00,VWS V14.00,2013-04-14 19:35:00,
2013-04-14 14:36:00,76.3,47.4,28.73,SE,137,8.7,8.7,36,0.00,,---,0.00,VWS V14.00,2013-04-14 19:36:00,
2013-04-14 14:42:00,76.3,47.4,28.73,South,177,12.8,12.8,36,0.00,,---,0.00,VWS V14.00,2013-04-14 19:42:00,
2013-04-14 14:45:00,76.3,47.4,28.73,SSE,155,14.1,14.1,36,0.00,,---,0.00,VWS V14.00,2013-04-14 19:45:00,
2013-04-14 14:48:00,76.3,47.4,28.73,SSE,151,8.1,14.1,36,0.00,,---,0.00,VWS V14.00,2013-04-14 19:48:00,
2013-04-14 14:50:00,76.3,47.4,28.73,South,170,10.1,14.1,36,0.00,,---,0.00,VWS V14.00,2013-04-14 19:50:00,
2013-04-14 14:51:00,76.3,47.4,28.73,South,170,10.1,10.1,36,0.00,,---,0.00,VWS V14.00,2013-04-14 19:51:00,
2013-04-14 14:54:00,76.3,47.4,28.73,South,170,10.1,10.1,36,0.00,,---,0.00,VWS V14.00,2013-04-14 19:54:00,
2013-04-14 14:57:00,76.3,47.4,28.73,South,175,8.3,10.1,36,0.00,,---,0.00,VWS V14.00,2013-04-14 19:57:00,
2013-04-14 15:00:00,76.3,47.4,28.73,SSE,159,8.7,10.1,36,0.00,,---,0.00,VWS V14.00,2013-04-14 20:00:00,
2013-04-14 15:05:00,76.3,47.4,28.73,SSE,165,8.1,11.0,36,0.00,,---,0.00,VWS V14.00,2013-04-14 20:05:00,
2013-04-14 15:06:00,76.3,47.4,28.73,SSE,165,8.1,8.1,36,0.00,,---,0.00,VWS V14.00,2013-04-14 20:06:00,
2013-04-14 15:12:00,76.3,47.4,28.70,SE,138,10.5,10.5,36,0.00,,---,0.00,VWS V14.00,2013-04-14 20:12:00,
2013-04-14 15:15:00,76.3,47.4,28.70,SSE,162,13.2,13.2,36,0.00,,---,0.00,VWS V14.00,2013-04-14 20:15:00,
2013-04-14 15:20:00,76.3,47.4,28.70,SSE,159,8.1,13.2,36,0.00,,---,0.00,VWS V14.00,2013-04-14 20:20:00,
2013-04-14 15:24:00,76.3,47.4,28.70,SSE,166,8.7,8.7,36,0.00,,---,0.00,VWS V14.00,2013-04-14 20:24:00,
2013-04-14 15:27:00,76.3,47.4,28.70,SSW,198,8.1,8.7,36,0.00,,---,0.00,VWS V14.00,2013-04-14 20:27:00,
2013-04-14 15:33:00,76.3,47.4,28.70,SSE,155,8.7,10.5,36,0.00,,---,0.00,VWS V14.00,2013-04-14 20:33:00,
2013-04-14 15:35:00,77.9,48.1,28.70,SSE,153,9.2,10.5,35,0.00,,---,0.00,VWS V14.00,2013-04-14 20:35:00,
2013-04-14 15:42:00,77.9,48.1,28.70,SE,141,10.1,10.1,35,0.00,,---,0.00,VWS V14.00,2013-04-14 20:42:00,
2013-04-14 15:48:00,77.9,48.1,28.70,South,172,8.1,10.1,35,0.00,,---,0.00,VWS V14.00,2013-04-14 20:48:00,
2013-04-14 15:50:00,77.9,48.1,28.70,SE,142,8.3,10.1,35,0.00,,---,0.00,VWS V14.00,2013-04-14 20:50:00,
2013-04-14 15:54:00,77.9,48.1,28.70,SSE,155,4.0,8.3,35,0.00,,---,0.00,VWS V14.00,2013-04-14 20:54:00,
2013-04-14 15:57:00,77.9,48.1,28.70,South,180,13.2,13.2,35,0.00,,---,0.00,VWS V14.00,2013-04-14 20:57:00,
2013-04-14 16:00:00,77.9,48.1,28.70,South,180,13.2,13.2,35,0.00,,---,0.00,VWS V14.00,2013-04-14 21:00:00,
2013-04-14 16:03:00,77.9,48.1,28.70,SE,139,10.5,13.2,35,0.00,,---,0.00,VWS V14.00,2013-04-14 21:03:00,
2013-04-14 16:05:00,77.9,48.1,28.70,SSE,163,10.1,13.2,35,0.00,,---,0.00,VWS V14.00,2013-04-14 21:05:00,
2013-04-14 16:09:00,77.9,48.1,28.70,SE,138,13.2,13.2,35,0.00,,---,0.00,VWS V14.00,2013-04-14 21:09:00,
2013-04-14 16:12:00,77.9,48.1,28.70,SSE,160,5.8,13.2,35,0.00,,---,0.00,VWS V14.00,2013-04-14 21:12:00,
2013-04-14 16:15:00,77.9,48.1,28.70,SE,143,7.6,13.2,35,0.00,,---,0.00,VWS V14.00,2013-04-14 21:15:00,
2013-04-14 16:22:00,78.4,47.8,28.70,SW,227,6.3,6.3,34,0.00,,---,0.00,VWS V14.00,2013-04-14 21:22:00,
2013-04-14 16:25:00,78.4,47.8,28.70,SSE,164,10.5,10.5,34,0.00,,---,0.00,VWS V14.00,2013-04-14 21:25:00,
2013-04-14 16:28:00,78.6,47.9,28.70,South,174,8.7,10.5,34,0.00,,---,0.00,VWS V14.00,2013-04-14 21:28:00,
2013-04-14 16:34:00,78.6,47.9,28.70,SSE,160,6.3,12.8,34,0.00,,---,0.00,VWS V14.00,2013-04-14 21:34:00,
2013-04-14 16:37:00,78.6,47.9,28.70,South,169,11.0,11.0,34,0.00,,---,0.00,VWS V14.00,2013-04-14 21:37:00,
2013-04-14 16:40:00,78.6,47.9,28.67,SE,141,7.6,11.0,34,0.00,,---,0.00,VWS V14.00,2013-04-14 21:40:00,
2013-04-14 16:46:00,78.6,47.9,28.67,SSE,162,10.1,15.0,34,0.00,,---,0.00,VWS V14.00,2013-04-14 21:46:00,
2013-04-14 16:49:00,78.6,47.9,28.67,South,189,15.9,15.9,34,0.00,,---,0.00,VWS V14.00,2013-04-14 21:49:00,
2013-04-14 16:52:00,78.6,47.9,28.67,SSE,153,11.0,11.0,34,0.00,,---,0.00,VWS V14.00,2013-04-14 21:52:00,
2013-04-14 16:55:00,80.9,50.0,28.67,SSE,155,10.5,12.8,34,0.00,,---,0.00,VWS V14.00,2013-04-14 21:55:00,
2013-04-14 16:58:00,80.9,50.0,28.67,South,179,8.3,12.8,34,0.00,,---,0.00,VWS V14.00,2013-04-14 21:58:00,
2013-04-14 17:01:00,82.7,50.7,28.67,SSE,151,9.2,12.8,33,0.00,,---,0.00,VWS V14.00,2013-04-14 22:01:00,
2013-04-14 17:05:00,82.7,50.7,28.67,SSE,158,10.5,12.8,33,0.00,,---,0.00,VWS V14.00,2013-04-14 22:05:00,
2013-04-14 17:07:00,82.7,50.7,28.67,SSE,150,10.5,10.5,33,0.00,,---,0.00,VWS V14.00,2013-04-14 22:07:00,
2013-04-14 17:13:00,84.0,51.8,28.67,SSE,167,11.0,11.0,33,0.00,,---,0.00,VWS V14.00,2013-04-14 22:13:00,
2013-04-14 17:19:00,84.0,51.8,28.67,SE,139,12.3,12.3,33,0.00,,---,0.00,VWS V14.00,2013-04-14 22:19:00,
2013-04-14 17:20:00,84.0,51.8,28.67,SE,139,12.3,12.3,33,0.00,,---,0.00,VWS V14.00,2013-04-14 22:20:00,
2013-04-14 17:22:00,84.0,51.8,28.67,SE,139,12.3,12.3,33,0.00,,---,0.00,VWS V14.00,2013-04-14 22:22:00,
2013-04-14 17:25:00,84.0,51.8,28.67,SSE,163,11.0,12.3,33,0.00,,---,0.00,VWS V14.00,2013-04-14 22:25:00,
2013-04-14 17:34:00,84.0,51.8,28.67,SSE,153,13.2,13.2,33,0.00,,---,0.00,VWS V14.00,2013-04-14 22:34:00,
2013-04-14 17:40:00,84.0,51.8,28.67,SSE,150,12.3,12.8,33,0.00,,---,0.00,VWS V14.00,2013-04-14 22:40:00,
2013-04-14 17:43:00,85.3,52.1,28.67,SSE,150,12.3,12.8,32,0.00,,---,0.00,VWS V14.00,2013-04-14 22:43:00,
2013-04-14 17:46:00,85.3,52.1,28.67,SSE,150,8.1,12.8,32,0.00,,---,0.00,VWS V14.00,2013-04-14 22:46:00,
2013-04-14 17:49:00,85.3,52.1,28.67,South,169,10.1,12.8,32,0.00,,---,0.00,VWS V14.00,2013-04-14 22:49:00,
2013-04-14 17:52:00,85.3,52.1,28.67,SSE,161,8.7,10.1,32,0.00,,---,0.00,VWS V14.00,2013-04-14 22:52:00,
2013-04-14 17:58:00,85.3,52.1,28.67,SSE,153,8.3,10.1,32,0.00,,---,0.00,VWS V14.00,2013-04-14 22:58:00,
2013-04-14 18:04:00,85.4,52.2,28.67,South,178,10.1,10.1,32,0.00,,---,0.00,VWS V14.00,2013-04-14 23:04:00,
2013-04-14 18:05:00,85.4,52.2,28.67,South,178,10.1,10.1,32,0.00,,---,0.00,VWS V14.00,2013-04-14 23:05:00,
2013-04-14 18:10:00,83.8,51.7,28.70,SSE,166,10.5,11.0,33,0.00,,---,0.00,VWS V14.00,2013-04-14 23:10:00,
2013-04-14 18:16:00,83.8,51.7,28.70,SSE,160,8.3,13.2,33,0.00,,---,0.00,VWS V14.00,2013-04-14 23:16:00,
2013-04-14 18:19:00,83.8,51.7,28.70,SSE,149,8.7,13.2,33,0.00,,---,0.00,VWS V14.00,2013-04-14 23:19:00,
2013-04-14 18:20:00,83.8,51.7,28.70,SSE,149,8.7,13.2,33,0.00,,---,0.00,VWS V14.00,2013-04-14 23:20:00,
2013-04-14 18:22:00,83.8,51.7,28.70,SSE,163,6.3,8.7,33,0.00,,---,0.00,VWS V14.00,2013-04-14 23:22:00,
2013-04-14 18:25:00,83.8,51.7,28.70,SSE,158,12.8,15.4,33,0.00,,---,0.00,VWS V14.00,2013-04-14 23:25:00,
2013-04-14 18:28:00,83.8,51.7,28.70,South,189,12.3,15.4,33,0.00,,---,0.00,VWS V14.00,2013-04-14 23:28:00,
2013-04-14 18:32:00,83.8,51.7,28.70,South,169,12.3,15.4,33,0.00,,---,0.00,VWS V14.00,2013-04-14 23:32:00,
2013-04-14 18:35:00,74.6,48.8,28.70,SE,138,10.1,15.4,40,0.00,,---,0.00,VWS V14.00,2013-04-14 23:35:00,
2013-04-14 18:41:00,74.6,48.8,28.70,South,170,7.6,10.5,40,0.00,,---,0.00,VWS V14.00,2013-04-14 23:41:00,
2013-04-14 18:44:00,72.8,49.1,28.70,SSE,152,11.0,11.0,43,0.00,,---,0.00,VWS V14.00,2013-04-14 23:44:00,
2013-04-14 18:47:00,72.8,49.1,28.70,SSE,162,10.5,11.0,43,0.00,,---,0.00,VWS V14.00,2013-04-14 23:47:00,
2013-04-14 18:50:00,72.8,49.1,28.70,South,170,8.3,11.0,43,0.00,,---,0.00,VWS V14.00,2013-04-14 23:50:00,
2013-04-14 18:53:00,71.2,48.8,28.70,South,170,8.3,8.3,45,0.00,,---,0.00,VWS V14.00,2013-04-14 23:53:00,
2013-04-14 18:56:00,71.2,48.8,28.70,SSE,148,8.1,8.3,45,0.00,,---,0.00,VWS V14.00,2013-04-14 23:56:00,
2013-04-14 19:02:00,71.2,48.8,28.70,SSE,160,8.3,12.3,45,0.00,,---,0.00,VWS V14.00,2013-04-15 00:02:00,
2013-04-14 19:05:00,71.2,48.8,28.70,South,173,8.1,12.3,45,0.00,,---,0.00,VWS V14.00,2013-04-15 00:05:00,
2013-04-14 19:14:00,68.5,50.2,28.73,SSE,153,8.1,10.1,52,0.00,,---,0.00,VWS V14.00,2013-04-15 00:14:00,
2013-04-14 19:17:00,68.2,50.4,28.73,SSE,153,8.1,10.1,53,0.00,,---,0.00,VWS V14.00,2013-04-15 00:17:00,
2013-04-14 19:20:00,68.2,50.4,28.73,SE,142,7.6,10.1,53,0.00,,---,0.00,VWS V14.00,2013-04-15 00:20:00,
2013-04-14 19:23:00,68.2,50.4,28.73,SSE,166,8.3,8.7,53,0.00,,---,0.00,VWS V14.00,2013-04-15 00:23:00,
2013-04-14 19:26:00,67.4,51.2,28.73,SSE,155,8.7,8.7,56,0.00,,---,0.00,VWS V14.00,2013-04-15 00:26:00,
2013-04-14 19:29:00,67.4,51.2,28.73,South,169,8.7,10.1,56,0.00,,---,0.00,VWS V14.00,2013-04-15 00:29:00,
2013-04-14 19:35:00,67.1,51.4,28.73,SE,144,6.3,10.5,57,0.00,,---,0.00,VWS V14.00,2013-04-15 00:35:00,
2013-04-14 19:36:00,67.1,51.4,28.73,SE,144,6.3,6.3,57,0.00,,---,0.00,VWS V14.00,2013-04-15 00:36:00,
2013-04-14 19:39:00,67.1,51.4,28.73,SSE,148,7.6,7.6,57,0.00,,---,0.00,VWS V14.00,2013-04-15 00:39:00,
2013-04-14 19:42:00,67.1,51.4,28.73,SSE,165,8.7,8.7,57,0.00,,---,0.00,VWS V14.00,2013-04-15 00:42:00,
2013-04-14 19:45:00,66.5,51.8,28.73,South,178,10.1,10.1,59,0.00,,---,0.00,VWS V14.00,2013-04-15 00:45:00,
2013-04-14 19:48:00,66.5,51.8,28.73,SSE,155,13.6,13.6,59,0.00,,---,0.00,VWS V14.00,2013-04-15 00:48:00,
2013-04-14 19:50:00,66.5,51.8,28.73,SSW,194,10.1,13.6,59,0.00,,---,0.00,VWS V14.00,2013-04-15 00:50:00,
2013-04-14 19:54:00,66.5,51.8,28.73,SSE,149,10.5,12.8,59,0.00,,---,0.00,VWS V14.00,2013-04-15 00:54:00,
2013-04-14 19:57:00,66.5,51.8,28.73,SSE,159,8.1,12.8,59,0.00,,---,0.00,VWS V14.00,2013-04-15 00:57:00,
2013-04-14 20:03:00,66.5,51.8,28.73,South,177,8.1,12.8,59,0.00,,---,0.00,VWS V14.00,2013-04-15 01:03:00,
2013-04-14 20:06:00,66.5,51.8,28.73,South,176,8.7,8.7,59,0.00,,---,0.00,VWS V14.00,2013-04-15 01:06:00,
2013-04-14 20:09:00,65.3,52.4,28.73,SSE,161,10.1,10.1,63,0.00,,---,0.00,VWS V14.00,2013-04-15 01:09:00,
2013-04-14 20:12:00,65.3,52.4,28.73,SSW,199,8.7,10.1,63,0.00,,---,0.00,VWS V14.00,2013-04-15 01:12:00,
2013-04-14 20:15:00,65.3,52.4,28.73,SE,134,7.2,10.1,63,0.00,,---,0.00,VWS V14.00,2013-04-15 01:15:00,
2013-04-14 20:20:00,64.9,52.5,28.73,SE,134,10.5,10.5,64,0.00,,---,0.00,VWS V14.00,2013-04-15 01:20:00,
2013-04-14 20:21:00,64.9,52.5,28.73,SE,134,10.5,10.5,64,0.00,,---,0.00,VWS V14.00,2013-04-15 01:21:00,
2013-04-14 20:24:00,64.9,52.5,28.76,SSE,162,11.9,11.9,64,0.00,,---,0.00,VWS V14.00,2013-04-15 01:24:00,
2013-04-14 20:27:00,64.7,53.1,28.76,SSE,152,10.5,11.9,66,0.00,,---,0.00,VWS V14.00,2013-04-15 01:27:00,
2013-04-14 20:30:00,64.7,53.1,28.76,SSE,152,10.5,11.9,66,0.00,,---,0.00,VWS V14.00,2013-04-15 01:30:00,
2013-04-14 20:33:00,64.7,53.1,28.76,SSE,151,8.7,13.2,66,0.00,,---,0.00,VWS V14.00,2013-04-15 01:33:00,
2013-04-14 20:40:00,64.7,53.1,28.76,SSE,159,13.2,13.2,66,0.00,,---,0.00,VWS V14.00,2013-04-15 01:40:00,
2013-04-14 20:43:00,64.7,53.1,28.76,SSE,157,12.8,13.2,66,0.00,,---,0.00,VWS V14.00,2013-04-15 01:43:00,
2013-04-14 20:46:00,64.4,53.6,28.76,SSE,168,11.9,13.2,68,0.00,,---,0.00,VWS V14.00,2013-04-15 01:46:00,
2013-04-14 20:49:00,64.2,53.4,28.76,SSE,166,7.6,13.2,68,0.00,,---,0.00,VWS V14.00,2013-04-15 01:49:00,
2013-04-14 20:50:00,64.2,53.4,28.76,SSE,166,7.6,13.2,68,0.00,,---,0.00,VWS V14.00,2013-04-15 01:50:00,
2013-04-14 20:52:00,64.2,53.4,28.76,South,170,8.1,8.1,68,0.00,,---,0.00,VWS V14.00,2013-04-15 01:52:00,
2013-04-14 20:55:00,64.2,53.4,28.76,SSE,152,7.6,8.1,68,0.00,,---,0.00,VWS V14.00,2013-04-15 01:55:00,
2013-04-14 20:58:00,64.2,53.4,28.76,South,172,8.1,8.3,68,0.00,,---,0.00,VWS V14.00,2013-04-15 01:58:00,
2013-04-14 21:04:00,63.8,53.5,28.76,SSE,151,8.7,8.7,69,0.00,,---,0.00,VWS V14.00,2013-04-15 02:04:00,
2013-04-14 21:05:00,63.8,53.5,28.76,SSE,151,8.7,8.7,69,0.00,,---,0.00,VWS V14.00,2013-04-15 02:05:00,
2013-04-14 21:07:00,63.7,53.3,28.76,SSE,151,8.7,8.7,69,0.00,,---,0.00,VWS V14.00,2013-04-15 02:07:00,
2013-04-14 21:13:00,63.7,53.3,28.79,SSE,156,8.1,8.7,69,0.00,,---,0.00,VWS V14.00,2013-04-15 02:13:00,
2013-04-14 21:16:00,63.5,53.1,28.79,SE,133,8.1,8.7,69,0.00,,---,0.00,VWS V14.00,2013-04-15 02:16:00,
2013-04-14 21:19:00,63.5,53.1,28.79,SSE,159,6.7,8.7,69,0.00,,---,0.00,VWS V14.00,2013-04-15 02:19:00,
2013-04-14 21:20:00,63.5,53.1,28.79,SSE,149,6.3,8.7,69,0.00,,---,0.00,VWS V14.00,2013-04-15 02:20:00,
2013-04-14 21:25:00,63.5,53.1,28.79,South,176,8.3,8.3,69,0.00,,---,0.00,VWS V14.00,2013-04-15 02:25:00,
2013-04-14 21:28:00,63.3,53.4,28.79,SSE,153,8.3,8.3,70,0.00,,---,0.00,VWS V14.00,2013-04-15 02:28:00,
2013-04-14 21:34:00,63.1,53.2,28.79,SSE,148,6.3,8.3,70,0.00,,---,0.00,VWS V14.00,2013-04-15 02:34:00,
2013-04-14 21:35:00,63.1,53.2,28.79,SSE,148,6.3,8.3,70,0.00,,---,0.00,VWS V14.00,2013-04-15 02:35:00,
2013-04-14 21:37:00,63.1,53.2,28.79,SSE,158,6.3,6.3,70,0.00,,---,0.00,VWS V14.00,2013-04-15 02:37:00,
2013-04-14 21:40:00,62.9,53.4,28.79,SSE,158,6.3,6.3,71,0.00,,---,0.00,VWS V14.00,2013-04-15 02:40:00,
2013-04-14 21:46:00,62.9,53.4,28.79,SSE,161,7.6,7.6,71,0.00,,---,0.00,VWS V14.00,2013-04-15 02:46:00,
2013-04-14 21:50:00,62.8,53.2,28.79,SSE,161,7.6,7.6,71,0.00,,---,0.00,VWS V14.00,2013-04-15 02:50:00,
2013-04-14 21:55:00,62.8,53.2,28.79,SSE,163,6.3,7.6,71,0.00,,---,0.00,VWS V14.00,2013-04-15 02:55:00,
2013-04-14 21:58:00,62.6,53.4,28.79,SSE,163,6.3,7.6,72,0.00,,---,0.00,VWS V14.00,2013-04-15 02:58:00,
2013-04-14 22:05:00,62.4,53.3,28.79,SSE,153,8.3,8.3,72,0.00,,---,0.00,VWS V14.00,2013-04-15 03:05:00,
2013-04-14 22:14:00,62.4,53.6,28.79,South,171,8.7,8.7,73,0.00,,---,0.00,VWS V14.00,2013-04-15 03:14:00,
2013-04-14 22:17:00,62.4,53.6,28.82,SSE,148,7.6,8.7,73,0.00,,---,0.00,VWS V14.00,2013-04-15 03:17:00,
2013-04-14 22:20:00,62.4,53.6,28.82,SSE,148,7.6,8.7,73,0.00,,---,0.00,VWS V14.00,2013-04-15 03:20:00,
2013-04-14 22:23:00,62.2,53.8,28.82,SSE,148,7.6,7.6,74,0.00,,---,0.00,VWS V14.00,2013-04-15 03:23:00,
2013-04-14 22:26:00,62.2,53.8,28.82,SSE,155,8.3,8.3,74,0.00,,---,0.00,VWS V14.00,2013-04-15 03:26:00,
2013-04-14 22:29:00,62.2,53.8,28.82,SE,142,8.1,8.3,74,0.00,,---,0.00,VWS V14.00,2013-04-15 03:29:00,
2013-04-14 22:32:00,62.2,54.2,28.82,South,175,8.7,8.7,75,0.00,,---,0.00,VWS V14.00,2013-04-15 03:32:00,
2013-04-14 22:35:00,62.2,54.2,28.82,SE,143,8.1,8.7,75,0.00,,---,0.00,VWS V14.00,2013-04-15 03:35:00,
2013-04-14 22:38:00,62.2,54.2,28.82,SSE,156,8.1,8.1,75,0.00,,---,0.00,VWS V14.00,2013-04-15 03:38:00,
2013-04-14 22:41:00,62.0,54.4,28.82,SSE,164,6.3,8.1,76,0.00,,---,0.00,VWS V14.00,2013-04-15 03:41:00,
2013-04-14 22:44:00,62.0,54.4,28.82,South,182,8.3,8.3,76,0.00,,---,0.00,VWS V14.00,2013-04-15 03:44:00,
2013-04-14 22:47:00,61.9,54.2,28.82,SSE,166,7.6,8.3,76,0.00,,---,0.00,VWS V14.00,2013-04-15 03:47:00,
2013-04-14 22:50:00,61.9,54.6,28.82,SSE,166,7.6,8.3,77,0.00,,---,0.00,VWS V14.00,2013-04-15 03:50:00,
2013-04-14 22:56:00,61.9,54.6,28.82,SSE,158,7.6,8.1,77,0.00,,---,0.00,VWS V14.00,2013-04-15 03:56:00,
2013-04-14 22:59:00,61.9,54.6,28.82,SSE,159,7.2,10.1,77,0.00,,---,0.00,VWS V14.00,2013-04-15 03:59:00,
2013-04-14 23:02:00,61.9,54.6,28.82,South,179,8.1,10.1,77,0.00,,---,0.00,VWS V14.00,2013-04-15 04:02:00,
2013-04-14 23:05:00,61.9,54.9,28.82,SSE,156,8.3,10.1,78,0.00,,---,0.00,VWS V14.00,2013-04-15 04:05:00,
2013-04-14 23:08:00,61.9,54.9,28.82,SE,146,8.1,8.3,78,0.00,,---,0.00,VWS V14.00,2013-04-15 04:08:00,
2013-04-14 23:11:00,61.9,54.9,28.82,SSE,160,8.7,8.7,78,0.00,,---,0.00,VWS V14.00,2013-04-15 04:11:00,
2013-04-14 23:15:00,61.7,54.8,28.82,SSE,160,6.3,8.7,78,0.00,,---,0.00,VWS V14.00,2013-04-15 04:15:00,
2013-04-14 23:18:00,61.7,54.8,28.82,South,178,8.1,8.7,78,0.00,,---,0.00,VWS V14.00,2013-04-15 04:18:00,
2013-04-14 23:20:00,61.7,54.8,28.82,South,178,8.1,8.7,78,0.00,,---,0.00,VWS V14.00,2013-04-15 04:20:00,
2013-04-14 23:24:00,61.7,54.8,28.82,SSE,158,6.7,8.1,78,0.00,,---,0.00,VWS V14.00,2013-04-15 04:24:00,
2013-04-14 23:27:00,61.7,54.8,28.82,SSE,158,6.7,8.1,78,0.00,,---,0.00,VWS V14.00,2013-04-15 04:27:00,
2013-04-14 23:30:00,61.7,54.8,28.82,SE,125,8.3,8.3,78,0.00,,---,0.00,VWS V14.00,2013-04-15 04:30:00,
2013-04-14 23:35:00,61.5,54.9,28.82,SSE,154,5.8,8.3,79,0.00,,---,0.00,VWS V14.00,2013-04-15 04:35:00,
2013-04-14 23:42:00,61.5,55.3,28.82,SSE,165,7.2,7.2,80,0.00,,---,0.00,VWS V14.00,2013-04-15 04:42:00,
2013-04-14 23:45:00,61.5,55.3,28.82,SE,143,5.8,7.6,80,0.00,,---,0.00,VWS V14.00,2013-04-15 04:45:00,
2013-04-14 23:48:00,61.1,54.9,28.82,SSE,155,6.3,7.6,80,0.00,,---,0.00,VWS V14.00,2013-04-15 04:48:00,
2013-04-14 23:50:00,61.1,54.9,28.82,SSE,167,5.4,7.6,80,0.00,,---,0.00,VWS V14.00,2013-04-15 04:50:00,
2013-04-14 23:55:00,61.1,54.9,28.82,SSE,153,5.4,6.3,80,0.00,,---,0.00,VWS V14.00,2013-04-15 04:55:00,